Burlington, IA

1:01 PM CDT on August 26, 2016 (GMT -0500)
Burlington Regional

Weather History for KBRL - March, 2014

Change the Weather History Date:

Monday, March 3, 2014

  Actual Average Record
Temperature  
Mean Temperature 4 °F 36 °F  
Max Temperature 15 °F 45 °F 78 °F (1983)
Min Temperature -8 °F 27 °F -8 °F (2014)
Degree Days  
Heating Degree Days 61 29  
Month to date heating degree days 169 89  
Since 1 July heating degree days 5492 4467  
Cooling Degree Days 0 0  
Month to date cooling degree days 0 0  
Year to date cooling degree days 0 0  
Moisture  
Dew Point -10 °F    
Average Humidity 54    
Maximum Humidity 69    
Minimum Humidity 38    
Precipitation  
Precipitation 0.00 in 0.09 in 0.66 in (2008)
Month to date precipitation 0.21 0.26  
Year to date precipitation 4.58 3.12  
Sea Level Pressure  
Sea Level Pressure 30.51 in    
Wind  
Wind Speed 4 mph (North)    
Max Wind Speed 12 mph    
Max Gust Speed 15 mph    
Visibility 10 miles    
Events      
T = Trace of Precipitation, MM = Missing Value Source: NWS Daily Summary

Daily Weather History Graph

Daily Weather History Graph

Search for Another Location

Airport or City:

Trip Planner

Search our weather history database for the weather conditions in past years. The results will help you decide how hot, cold, wet, or windy it might be!

Date:

Astronomy

Mar. 03, 2014 Rise Set
Actual Time 6:35 AM CST 5:58 PM CST
Civil Twilight 6:07 AM CST 6:25 PM CST
Nautical Twilight 5:36 AM CST 6:57 PM CST
Astronomical Twilight 5:04 AM CST 7:29 PM CST
Moon 7:42 AM CST (3/3) 9:02 PM CST (3/3)
Length of Visible Light 12h 17m
Length of Day
11h 22m
Waxing Crescent, 8% of the Moon is Illuminated
Mar 3
Waxing Crescent
Mar 8
First Quarter
Mar 16
Full
Mar 23
Last Quarter
Mar 30
New

Hourly Weather History & Observations

Time (CST) Temp. Windchill Dew Point Humidity Pressure Visibility Wind Dir Wind Speed Gust Speed Precip Events Conditions
12:53 AM -5.1 °F -19.1 °F -16.1 °F 59% 30.55 in 10.0 mi NNW 6.9 mph - N/A   Clear
1:53 AM -6.0 °F -23.6 °F -16.1 °F 62% 30.54 in 10.0 mi NNW 10.4 mph - N/A   Clear
2:53 AM -7.1 °F -21.4 °F -16.1 °F 65% 30.53 in 10.0 mi North 6.9 mph - N/A   Clear
3:53 AM -7.1 °F -21.4 °F -16.1 °F 65% 30.54 in 10.0 mi North 6.9 mph - N/A   Clear
4:53 AM -8.0 °F -22.5 °F -16.1 °F 68% 30.56 in 10.0 mi NNW 6.9 mph - N/A   Clear
5:53 AM -8.0 °F -23.9 °F -16.1 °F 68% 30.57 in 10.0 mi NNW 8.1 mph - N/A   Clear
6:53 AM -8.0 °F -21.0 °F -16.1 °F 68% 30.58 in 10.0 mi NNW 5.8 mph - N/A   Clear
7:53 AM -6.0 °F -16.9 °F -15.0 °F 65% 30.58 in 10.0 mi NNW 4.6 mph - N/A   Clear
8:53 AM -0.0 °F -7.9 °F -13.0 °F 54% 30.58 in 10.0 mi North 3.5 mph - N/A   Clear
9:53 AM 3.0 °F -4.4 °F -11.9 °F 50% 30.59 in 10.0 mi NNE 3.5 mph - N/A   Clear
10:53 AM 6.1 °F - -11.0 °F 45% 30.59 in 10.0 mi Calm Calm - N/A   Clear
11:53 AM 7.0 °F - -9.9 °F 46% 30.58 in 10.0 mi Calm Calm - N/A   Clear
12:53 PM 10.0 °F 3.6 °F -7.1 °F 46% 30.56 in 10.0 mi SSE 3.5 mph - N/A   Clear
1:53 PM 10.9 °F - -8.0 °F 42% 30.53 in 10.0 mi Calm Calm - N/A   Clear
2:53 PM 12.0 °F 5.9 °F -8.0 °F 41% 30.51 in 10.0 mi SW 3.5 mph - N/A   Clear
3:53 PM 12.9 °F 3.8 °F -5.1 °F 45% 30.50 in 10.0 mi SW 5.8 mph - N/A   Clear
4:53 PM 14.0 °F - -7.1 °F 39% 30.48 in 10.0 mi Calm Calm - N/A   Clear
5:53 PM 12.0 °F 4.1 °F -9.0 °F 39% 30.47 in 10.0 mi SSE 4.6 mph - N/A   Clear
6:53 PM 10.9 °F 2.9 °F -8.0 °F 42% 30.45 in 10.0 mi SSE 4.6 mph - N/A   Clear
7:53 PM 9.0 °F 2.4 °F -2.0 °F 61% 30.43 in 10.0 mi SE 3.5 mph - N/A   Clear
8:53 PM 8.1 °F 1.4 °F -2.0 °F 64% 30.41 in 10.0 mi SE 3.5 mph - N/A   Clear
9:53 PM 9.0 °F -2.2 °F -0.9 °F 64% 30.38 in 10.0 mi SSE 6.9 mph - N/A   Partly Cloudy
10:53 PM 10.0 °F - -0.0 °F 64% 30.38 in 10.0 mi Calm Calm - N/A   Partly Cloudy
11:53 PM 10.9 °F 4.7 °F 1.9 °F 67% 30.38 in 10.0 mi North 3.5 mph - N/A   Mostly Cloudy